When you browse on this site, cookies collect data to enhance your experience and personalize the content and advertising you see.
Visit our Privacy Policy to learn more. By continuing to use the site, you agree to this use of cookies and data.
  • En España
  • Lista de países
  • Para 7 días
  • Temperatura del agua
  • El tiempo en el mapa
  • Informadores
  • user-avatar
    Iniciar sesión

    Tiempo cada hora La-Plata

    Hoy, 1 Junio, Lunes

    Tiempo Temperatura Precipitaciones Viento Presión Humedad
    00:00 +7°C° 0 mm 4 mps 763 mmHg 73%
    01:00 +6°C° 0 mm 4 mps 764 mmHg 78%
    02:00 +6°C° 0 mm 4 mps 764 mmHg 83%
    03:00 +5°C° 0 mm 4 mps 764 mmHg 85%
    04:00 +5°C° 0 mm 4 mps 764 mmHg 88%
    05:00 +5°C° 0 mm 4 mps 764 mmHg 90%
    06:00 +5°C° 0 mm 4 mps 764 mmHg 89%
    07:00 +5°C° 0 mm 4 mps 765 mmHg 87%
    08:00 +5°C° 0 mm 4 mps 765 mmHg 85%
    09:00 +7°C° 0 mm 4 mps 765 mmHg 77%
    10:00 +10°C° 0 mm 4 mps 765 mmHg 69%
    11:00 +12°C° 0 mm 4 mps 765 mmHg 60%
    12:00 +12°C° 0 mm 3 mps 765 mmHg 57%
    13:00 +13°C° 0 mm 3 mps 765 mmHg 53%
    14:00 +14°C° 0 mm 2 mps 764 mmHg 50%
    15:00 +13°C° 0 mm 2 mps 764 mmHg 55%
    16:00 +12°C° 0 mm 2 mps 764 mmHg 60%
    17:00 +11°C° 0 mm 1 mps 764 mmHg 64%
    18:00 +10°C° 0 mm 1 mps 764 mmHg 68%
    19:00 +9°C° 0 mm 1 mps 765 mmHg 71%
    20:00 +9°C° 0 mm 1 mps 765 mmHg 74%
    21:00 +8°C° 0 mm 1 mps 765 mmHg 76%
    22:00 +7°C° 0 mm 0 mps 765 mmHg 77%
    23:00 +7°C° 0 mm 0 mps 765 mmHg 78%

    Mañana, 2 Junio, Martes

    Tiempo Temperatura Precipitaciones Viento Presión Humedad
    00:00 +8°C° 0 mm 1 mps 765 mmHg 79%
    01:00 +8°C° 0 mm 1 mps 765 mmHg 79%
    02:00 +8°C° 0 mm 1 mps 765 mmHg 80%
    03:00 +8°C° 0 mm 1 mps 764 mmHg 80%
    04:00 +7°C° 0 mm 2 mps 764 mmHg 80%
    05:00 +6°C° 0 mm 2 mps 764 mmHg 81%
    06:00 +7°C° 0 mm 2 mps 764 mmHg 78%
    07:00 +7°C° 0 mm 2 mps 764 mmHg 76%
    08:00 +8°C° 0 mm 2 mps 765 mmHg 73%
    09:00 +10°C° 0 mm 3 mps 764 mmHg 68%
    10:00 +11°C° 0 mm 4 mps 764 mmHg 62%
    11:00 +13°C° 0 mm 4 mps 764 mmHg 56%
    12:00 +13°C° 0 mm 4 mps 763 mmHg 54%
    13:00 +14°C° 0 mm 4 mps 763 mmHg 52%
    14:00 +14°C° 0 mm 4 mps 762 mmHg 49%
    15:00 +13°C° 0 mm 4 mps 762 mmHg 54%
    16:00 +12°C° 0 mm 4 mps 762 mmHg 59%
    17:00 +11°C° 0 mm 3 mps 761 mmHg 65%
    18:00 +10°C° 0 mm 3 mps 762 mmHg 67%
    19:00 +10°C° 0 mm 4 mps 762 mmHg 69%
    20:00 +10°C° 0 mm 4 mps 762 mmHg 72%
    21:00 +10°C° 0 mm 4 mps 762 mmHg 73%
    22:00 +10°C° 0 mm 4 mps 762 mmHg 75%
    23:00 +10°C° 0 mm 4 mps 762 mmHg 76%

    Pasado mañana, 3 Junio, Miércoles

    Tiempo Temperatura Precipitaciones Viento Presión Humedad
    00:00 +10°C° 0 mm 3 mps 762 mmHg 77%
    01:00 +10°C° 0 mm 3 mps 762 mmHg 78%
    02:00 +9°C° 0 mm 3 mps 762 mmHg 80%
    03:00 +9°C° 0 mm 3 mps 762 mmHg 79%
    04:00 +9°C° 0 mm 2 mps 763 mmHg 79%
    05:00 +9°C° 0 mm 2 mps 763 mmHg 79%
    06:00 +9°C° 0 mm 2 mps 763 mmHg 78%
    07:00 +9°C° 0 mm 2 mps 764 mmHg 77%
    08:00 +10°C° 0 mm 2 mps 764 mmHg 76%
    09:00 +12°C° 0 mm 1 mps 765 mmHg 68%
    10:00 +14°C° 0 mm 1 mps 765 mmHg 61%
    11:00 +15°C° 0 mm 1 mps 766 mmHg 54%
    12:00 +16°C° 0 mm 1 mps 765 mmHg 52%
    13:00 +16°C° 0 mm 1 mps 765 mmHg 50%
    14:00 +16°C° 0 mm 2 mps 765 mmHg 48%
    15:00 +15°C° 0 mm 2 mps 765 mmHg 55%
    16:00 +12°C° 0 mm 3 mps 765 mmHg 62%
    17:00 +11°C° 0 mm 3 mps 766 mmHg 68%
    18:00 +10°C° 0 mm 4 mps 766 mmHg 73%
    19:00 +10°C° 0 mm 4 mps 766 mmHg 77%
    20:00 +8°C° 0 mm 4 mps 766 mmHg 81%
    21:00 +8°C° 0 mm 4 mps 767 mmHg 83%
    22:00 +8°C° 0 mm 4 mps 767 mmHg 84%
    23:00 +8°C° 0 mm 4 mps 767 mmHg 86%

    4 Junio, Jueves

    Tiempo Temperatura Precipitaciones Viento Presión Humedad
    00:00 +8°C° 0 mm 4 mps 767 mmHg 87%
    01:00 +9°C° 0 mm 3 mps 767 mmHg 88%
    02:00 +9°C° 0 mm 3 mps 767 mmHg 88%
    03:00 +9°C° 0 mm 3 mps 767 mmHg 89%
    04:00 +8°C° 0 mm 3 mps 767 mmHg 90%
    05:00 +8°C° 0 mm 3 mps 767 mmHg 91%
    06:00 +9°C° 0 mm 3 mps 767 mmHg 90%
    07:00 +9°C° 0 mm 3 mps 767 mmHg 88%
    08:00 +10°C° 0 mm 3 mps 768 mmHg 87%
    09:00 +11°C° 0 mm 4 mps 768 mmHg 80%
    10:00 +13°C° 0 mm 4 mps 768 mmHg 72%
    11:00 +15°C° 0 mm 5 mps 768 mmHg 65%
    12:00 +15°C° 0 mm 5 mps 767 mmHg 64%
    13:00 +15°C° 0 mm 5 mps 766 mmHg 64%
    14:00 +15°C° 0 mm 5 mps 766 mmHg 63%
    15:00 +14°C° 0 mm 5 mps 765 mmHg 69%
    16:00 +13°C° 0 mm 6 mps 765 mmHg 74%
    17:00 +11°C° 0 mm 6 mps 765 mmHg 79%
    18:00 +11°C° 0 mm 6 mps 765 mmHg 81%
    19:00 +11°C° 0 mm 6 mps 765 mmHg 83%
    20:00 +12°C° 0 mm 5 mps 765 mmHg 85%
    21:00 +11°C° 0 mm 6 mps 765 mmHg 85%
    22:00 +11°C° 0 mm 6 mps 765 mmHg 84%
    23:00 +13°C° 0 mm 6 mps 765 mmHg 84%

    5 Junio, Viernes

    Tiempo Temperatura Precipitaciones Viento Presión Humedad
    00:00 +13°C° 0 mm 6 mps 764 mmHg 84%
    01:00 +11°C° 0 mm 6 mps 764 mmHg 84%
    02:00 +11°C° 0 mm 6 mps 764 mmHg 85%
    03:00 +13°C° 0 mm 6 mps 763 mmHg 85%
    04:00 +12°C° 0 mm 7 mps 762 mmHg 85%
    05:00 +12°C° 0 mm 7 mps 762 mmHg 85%
    06:00 +12°C° 0 mm 7 mps 761 mmHg 85%
    07:00 +12°C° 0 mm 7 mps 761 mmHg 84%
    08:00 +13°C° 0 mm 8 mps 761 mmHg 83%
    09:00 +13°C° 0 mm 8 mps 761 mmHg 80%
    10:00 +15°C° 0 mm 9 mps 760 mmHg 77%
    11:00 +16°C° 0 mm 9 mps 760 mmHg 74%
    12:00 +16°C° 0.3 mm 9 mps 759 mmHg 76%
    13:00 +15°C° 0.3 mm 9 mps 759 mmHg 77%
    14:00 +15°C° 0.3 mm 9 mps 758 mmHg 78%
    15:00 +15°C° 0.5 mm 9 mps 758 mmHg 80%
    16:00 +13°C° 0.5 mm 9 mps 757 mmHg 83%
    17:00 +13°C° 0.5 mm 9 mps 757 mmHg 85%
    18:00 +13°C° 0.1 mm 8 mps 757 mmHg 84%
    19:00 +13°C° 0.1 mm 8 mps 757 mmHg 84%
    20:00 +14°C° 0.1 mm 7 mps 757 mmHg 83%
    21:00 +14°C° 0 mm 7 mps 757 mmHg 84%
    22:00 +14°C° 0 mm 7 mps 757 mmHg 85%
    23:00 +14°C° 0 mm 6 mps 757 mmHg 85%

    6 Junio, Sábado

    Tiempo Temperatura Precipitaciones Viento Presión Humedad
    00:00 +14°C° 0 mm 7 mps 757 mmHg 86%
    01:00 +14°C° 0 mm 7 mps 757 mmHg 87%
    02:00 +14°C° 0 mm 7 mps 757 mmHg 88%
    03:00 +14°C° 0 mm 7 mps 756 mmHg 88%
    04:00 +14°C° 0 mm 6 mps 756 mmHg 88%
    05:00 +14°C° 0 mm 6 mps 756 mmHg 88%
    06:00 +14°C° 0 mm 6 mps 757 mmHg 88%
    07:00 +14°C° 0 mm 5 mps 757 mmHg 88%
    08:00 +15°C° 0 mm 5 mps 757 mmHg 88%
    09:00 +16°C° 0 mm 5 mps 757 mmHg 83%
    10:00 +17°C° 0 mm 5 mps 757 mmHg 77%
    11:00 +19°C° 0 mm 5 mps 757 mmHg 72%
    12:00 +19°C° 0 mm 4 mps 757 mmHg 73%
    13:00 +19°C° 0 mm 3 mps 757 mmHg 73%
    14:00 +19°C° 0 mm 3 mps 756 mmHg 74%
    15:00 +18°C° 0 mm 3 mps 757 mmHg 76%
    16:00 +18°C° 0 mm 3 mps 757 mmHg 79%
    17:00 +17°C° 0 mm 2 mps 757 mmHg 81%
    18:00 +17°C° 0 mm 2 mps 758 mmHg 84%
    19:00 +16°C° 0 mm 2 mps 759 mmHg 88%
    20:00 +15°C° 0 mm 2 mps 759 mmHg 91%
    21:00 +15°C° 0 mm 2 mps 760 mmHg 91%
    22:00 +14°C° 0 mm 2 mps 760 mmHg 92%
    23:00 +13°C° 0 mm 3 mps 760 mmHg 93%
    Mostrar más